Regional Weather Roundup
Issued by NWS

Home | Current Version | Previous Version | Text Only | Print | Product List | Glossary On
Versions: 1 2 3 4 5 6 7 8 9 10 11 12 13 14 15 16 17 18 19 20 21 22 23 24 25 26 27 28 29 30 31 32 33 34 35 36 37 38 39 40 41 42 43 44 45 46 47 48 49 50
000
ASUS43 KFSD 200110
RWRSD

WEATHER ROUNDUP FOR SOUTH DAKOTA
NATIONAL WEATHER SERVICE SIOUX FALLS SD
800 PM CDT TUE SEP 19 2017

NOTE: "FAIR" INDICATES FEW OR NO CLOUDS BELOW 12,000 FEET WITH NO
SIGNIFICANT WEATHER AND/OR OBSTRUCTIONS TO VISIBILITY.


SDZ001>005-009-010-012>017-200200-
NORTHWEST AND NORTH CENTRAL SOUTH DAKOTA

CITY           SKY/WX    TMP DP  RH WIND       PRES   REMARKS
BUFFALO          N/A     50  46  86 W10       29.62S
MOBRIDGE       MOCLDY    64  54  69 NW18G31   29.51R
$$

SDZ012>016-024>037-041>051-057-063-072>074-200200-
SOUTHWEST AND SOUTH CENTRAL SOUTH DAKOTA

CITY           SKY/WX    TMP DP  RH WIND       PRES   REMARKS
RAPID CTY ARPT CLOUDY    50  46  87 N22       29.69R
PIERRE         PTCLDY    67  50  54 NW23G32   29.55R
CUSTER         CLOUDY    48  36  63 W9G20     29.74R
ELLSWORTH AFB  CLOUDY    50  49  94 N21       29.69R
PHILIP         CLOUDY    62  52  69 NW26G35   29.62R
SPEARFISH      LGT RAIN  46  45  93 NW12      29.73R
WINNER         FAIR      76  59  55 NW29G36   29.51R
$$

SDZ004>011-016>023-039-040-200200-
NORTHEAST SOUTH DAKOTA

CITY           SKY/WX    TMP DP  RH WIND       PRES   REMARKS
ABERDEEN       CLOUDY    75  70  84 S20G26    29.36F THUNDER
WATERTOWN      CLEAR     73  68  84 SE17G26   29.47F
BROOKINGS      CLOUDY    75  68  78 SE17G25   29.53F
SISSETON         N/A     76  68  76 SE21G30   29.44F
$$

SDZ017-020-022-023-036>040-048>070-200200-
SOUTHEAST SOUTH DAKOTA

CITY           SKY/WX    TMP DP  RH WIND       PRES   REMARKS
SIOUX FALLS    CLOUDY    80  69  69 S17G26    29.52F
HURON          LGT RAIN  79  69  71 S18G25    29.38F
CHAMBERLAIN    CLOUDY    77  68  75 SW8       29.47R
MITCHELL       MOCLDY    81  69  67 S16G24    29.45F
YANKTON        CLOUDY    80  69  69 SE13G20   29.49S
$$

ABBREVIATIONS USED IN REMARKS
   TC - TEMPERATURE IN CELSIUS
  WCI - WIND CHILL INDEX
   HX - HEAT INDEX
  VSB - VISIBILITY





USA.gov is the U.S. government's official web portal to all federal, state and local government web resources and services.